Change the Weather History Date:

Friday, February 28, 2014

  Actual Average Record
Temperature  
Mean Temperature 10 °F -  
Max Temperature 21 °F 36 °F 58 °F (1985)
Min Temperature 0 °F 20 °F -29 °F (1962)
Degree Days  
Heating Degree Days 54    
Moisture  
Dew Point 4 °F    
Average Humidity 71    
Maximum Humidity 93    
Minimum Humidity 60    
Precipitation  
Precipitation 0.00 in - - ()
Sea Level Pressure  
Sea Level Pressure 29.89 in    
Wind  
Wind Speed 15 mph (SW)    
Max Wind Speed 21 mph    
Max Gust Speed 26 mph    
Visibility 8 miles    
Events Snow    
Averages and records for this station are not official NWS values.
T = Trace of Precipitation, MM = Missing Value Source: NWS Daily Summary

Daily Weather History Graph

Daily Weather History Graph

Search for Another Location

Airport or City:

Trip Planner

Search our weather history database for the weather conditions in past years. The results will help you decide how hot, cold, wet, or windy it might be!

Date:

Astronomy

Feb. 28, 2014 Rise Set
Actual Time 7:01 AM CST 6:11 PM CST
Civil Twilight 6:32 AM CST 6:39 PM CST
Nautical Twilight 5:59 AM CST 7:12 PM CST
Astronomical Twilight 5:26 AM CST 7:45 PM CST
Moon 6:16 AM CST (2/28) 5:49 PM CST (2/28)
Length of Visible Light 12h 07m
Length of Day
11h 10m
Waning Crescent, 1% of the Moon is Illuminated
Feb 28
Waning Crescent
Mar 1
New
Mar 8
First Quarter
Mar 16
Full
Mar 23
Last Quarter

Hourly Weather History & Observations

Time (CST) Temp. Windchill Dew Point Humidity Pressure Visibility Wind Dir Wind Speed Gust Speed Precip Events Conditions
12:15 AM -0.4 °F -18.4 °F -11.2 °F 60% 29.89 in 10.0 mi SE 12.7 mph - N/A   Overcast
12:35 AM -0.4 °F -19.9 °F -11.2 °F 60% 29.88 in 10.0 mi SE 15.0 mph - N/A   Overcast
12:55 AM -0.4 °F -19.9 °F -11.2 °F 60% 29.88 in 10.0 mi SE 15.0 mph - N/A   Overcast
1:15 AM -0.4 °F -21.7 °F -9.4 °F 66% 29.87 in 10.0 mi SE 18.4 mph - N/A   Overcast
1:35 AM -0.4 °F -19.2 °F -9.4 °F 66% 29.86 in 10.0 mi SE 13.8 mph - N/A   Overcast
1:55 AM -0.4 °F -19.9 °F -9.4 °F 66% 29.86 in 10.0 mi SE 15.0 mph - N/A   Overcast
2:15 AM 1.4 °F -16.9 °F -9.4 °F 61% 29.85 in 10.0 mi SE 13.8 mph 21.9 mph N/A   Overcast
2:35 AM 1.4 °F -16.9 °F -7.6 °F 66% 29.84 in 10.0 mi SE 13.8 mph - N/A   Overcast
2:55 AM 3.2 °F -13.1 °F -7.6 °F 61% 29.84 in 10.0 mi SE 11.5 mph 19.6 mph N/A   Overcast
3:15 AM 3.2 °F -15.9 °F -5.8 °F 66% 29.83 in 10.0 mi SE 16.1 mph - N/A   Overcast
3:35 AM 3.2 °F -17.1 °F -5.8 °F 66% 29.81 in 10.0 mi SE 18.4 mph - N/A   Overcast
3:55 AM 3.2 °F -17.1 °F -5.8 °F 66% 29.79 in 10.0 mi SE 18.4 mph - N/A   Overcast
4:15 AM 5.0 °F -13.6 °F -4.0 °F 66% 29.79 in 10.0 mi SE 16.1 mph 23.0 mph N/A   Mostly Cloudy
4:35 AM 5.0 °F -13.6 °F -4.0 °F 66% 29.78 in 10.0 mi SE 16.1 mph - N/A   Overcast
4:55 AM 5.0 °F -14.7 °F -4.0 °F 66% 29.77 in 10.0 mi SE 18.4 mph - N/A   Overcast
5:15 AM 5.0 °F -14.2 °F -4.0 °F 66% 29.76 in 10.0 mi SE 17.3 mph - N/A   Overcast
5:35 AM 5.0 °F -14.2 °F -4.0 °F 66% 29.76 in 10.0 mi SE 17.3 mph - N/A   Overcast
5:55 AM 6.8 °F -11.8 °F -2.2 °F 67% 29.76 in 10.0 mi SE 17.3 mph 23.0 mph N/A   Overcast
6:15 AM 6.8 °F -12.4 °F -2.2 °F 67% 29.74 in 10.0 mi SSE 18.4 mph 25.3 mph N/A   Overcast
6:35 AM 6.8 °F -11.3 °F -2.2 °F 67% 29.75 in 10.0 mi SSE 16.1 mph - N/A   Overcast
6:55 AM 6.8 °F -11.3 °F -2.2 °F 67% 29.75 in 10.0 mi SSE 16.1 mph - N/A   Overcast
7:15 AM 6.8 °F -10.7 °F -0.4 °F 72% 29.76 in 10.0 mi SSE 15.0 mph - N/A   Overcast
7:35 AM 6.8 °F -9.3 °F -0.4 °F 72% 29.76 in 10.0 mi SSE 12.7 mph 18.4 mph N/A   Overcast
7:55 AM 8.6 °F -7.0 °F -0.4 °F 67% 29.77 in - SSE 12.7 mph - N/A   Overcast
8:15 AM 8.6 °F -5.5 °F 1.4 °F 73% 29.78 in 10.0 mi SSE 10.4 mph - N/A   Mostly Cloudy
8:35 AM 10.4 °F -3.3 °F 1.4 °F 67% 29.78 in 10.0 mi SSE 10.4 mph 17.3 mph N/A   Mostly Cloudy
8:55 AM 10.4 °F -4.1 °F 3.2 °F 73% 29.79 in 10.0 mi South 11.5 mph 17.3 mph N/A   Scattered Clouds
9:15 AM 12.2 °F -0.2 °F 3.2 °F 67% 29.80 in 10.0 mi SSE 9.2 mph - N/A   Scattered Clouds
9:35 AM 12.2 °F -1.0 °F 3.2 °F 67% 29.80 in 10.0 mi South 10.4 mph - N/A   Overcast
9:55 AM 14.0 °F 2.9 °F 5.0 °F 67% 29.81 in 10.0 mi South 8.1 mph - N/A   Overcast
10:15 AM 15.8 °F 4.2 °F 5.0 °F 62% 29.81 in 10.0 mi South 9.2 mph - N/A   Overcast
10:35 AM 15.8 °F 4.2 °F 6.8 °F 68% 29.81 in 10.0 mi SSW 9.2 mph - N/A   Overcast
10:55 AM 15.8 °F 5.1 °F 6.8 °F 68% 29.82 in 10.0 mi South 8.1 mph - N/A   Overcast
11:15 AM 17.6 °F 6.4 °F 6.8 °F 63% 29.81 in 10.0 mi SSW 9.2 mph - N/A   Overcast
11:35 AM 19.4 °F 7.9 °F 8.6 °F 63% 29.81 in 10.0 mi SW 10.4 mph - N/A   Overcast
11:55 AM 19.4 °F 8.6 °F 8.6 °F 63% 29.82 in 10.0 mi SW 9.2 mph - N/A   Overcast
12:15 PM 19.4 °F 7.9 °F 8.6 °F 63% 29.82 in 10.0 mi WSW 10.4 mph - N/A   Mostly Cloudy
12:35 PM 19.4 °F 7.2 °F 8.6 °F 63% 29.83 in 10.0 mi WSW 11.5 mph - N/A   Partly Cloudy
12:55 PM 21.2 °F 8.9 °F 10.4 °F 63% 29.83 in 8.0 mi West 12.7 mph - N/A   Scattered Clouds
1:15 PM 21.2 °F 10.9 °F 10.4 °F 63% 29.83 in 10.0 mi West 9.2 mph - N/A   Overcast
1:35 PM 19.4 °F 7.2 °F 12.2 °F 74% 29.84 in 3.0 mi WNW 11.5 mph - N/A Snow Light Snow
1:55 PM 19.4 °F 7.2 °F 15.8 °F 86% 29.85 in 0.2 mi WNW 11.5 mph - N/A Snow Snow
2:15 PM 19.4 °F 7.9 °F 15.8 °F 86% 29.85 in 0.5 mi WNW 10.4 mph - N/A Snow Light Snow
2:35 PM 19.4 °F 6.6 °F 15.8 °F 86% 29.86 in 0.2 mi WNW 12.7 mph - N/A Snow Light Snow
2:55 PM 19.4 °F 6.0 °F 15.8 °F 86% 29.87 in 0.5 mi NW 13.8 mph - N/A Snow Light Snow
3:15 PM 19.4 °F 6.0 °F 15.8 °F 86% 29.89 in 0.8 mi NW 13.8 mph - N/A Snow Light Snow
3:35 PM 17.6 °F 2.7 °F 14.0 °F 86% 29.90 in 0.8 mi NW 16.1 mph - N/A Snow Light Snow
3:55 PM 17.6 °F 1.7 °F 15.8 °F 93% 29.91 in 0.5 mi NW 18.4 mph 26.5 mph N/A Snow Light Snow
4:15 PM 17.6 °F 2.7 °F 14.0 °F 86% 29.92 in 0.5 mi NW 16.1 mph 23.0 mph N/A Snow Light Snow
4:35 PM 17.6 °F 3.2 °F 14.0 °F 86% 29.93 in 0.8 mi NNW 15.0 mph - N/A Snow Light Snow
4:55 PM 17.6 °F 2.7 °F 14.0 °F 86% 29.93 in 0.8 mi NNW 16.1 mph - N/A Snow Light Snow
5:15 PM 17.6 °F 3.7 °F 14.0 °F 86% 29.94 in 2.0 mi NNW 13.8 mph 20.7 mph N/A Snow Light Snow
5:35 PM 19.4 °F 4.5 °F 14.0 °F 80% 29.95 in 3.0 mi NNW 17.3 mph - N/A Snow Light Snow
5:55 PM 19.4 °F 5.0 °F 12.2 °F 74% 29.96 in 2.5 mi NNW 16.1 mph - N/A Snow Light Snow
6:15 PM 17.6 °F 3.7 °F 14.0 °F 86% 29.97 in 1.2 mi NNW 13.8 mph - N/A Snow Light Snow
6:35 PM 17.6 °F 1.7 °F 14.0 °F 86% 29.98 in 1.2 mi NNW 18.4 mph 24.2 mph N/A Snow Light Snow
6:55 PM 17.6 °F 0.9 °F 12.2 °F 79% 29.99 in 4.0 mi NNW 20.7 mph - N/A Snow Light Snow
7:15 PM 17.6 °F 1.7 °F 10.4 °F 73% 30.00 in 4.0 mi NNW 18.4 mph - N/A Snow Light Snow
7:35 PM 17.6 °F 3.2 °F 10.4 °F 73% 30.01 in 9.0 mi NNW 15.0 mph - N/A Snow Light Snow
7:55 PM 15.8 °F 0.3 °F 10.4 °F 79% 30.02 in 10.0 mi NNW 16.1 mph - N/A Snow Light Snow
8:15 PM 15.8 °F 0.3 °F 10.4 °F 79% 30.03 in 10.0 mi NNW 16.1 mph - N/A   Overcast
8:35 PM 15.8 °F -0.2 °F 8.6 °F 73% 30.05 in 10.0 mi NNW 17.3 mph - N/A   Overcast
8:55 PM 15.8 °F -0.2 °F 8.6 °F 73% 30.07 in 10.0 mi NNW 17.3 mph - N/A Snow Light Snow
9:15 PM 14.0 °F -2.0 °F 6.8 °F 73% 30.08 in 5.0 mi North 16.1 mph - N/A Snow Light Snow
9:35 PM 14.0 °F -3.9 °F 5.0 °F 67% 30.11 in 10.0 mi North 20.7 mph - N/A   Overcast
9:55 PM 12.2 °F -5.8 °F 3.2 °F 67% 30.12 in 10.0 mi North 19.6 mph 25.3 mph N/A   Overcast
10:15 PM 12.2 °F -5.8 °F 5.0 °F 73% 30.13 in 10.0 mi North 19.6 mph - N/A   Overcast
10:35 PM 10.4 °F -7.2 °F 3.2 °F 73% 30.14 in 10.0 mi North 17.3 mph 24.2 mph N/A   Overcast
10:55 PM 10.4 °F -7.2 °F 3.2 °F 73% 30.14 in 10.0 mi North 17.3 mph 24.2 mph N/A   Overcast
11:15 PM 10.4 °F -7.7 °F 3.2 °F 73% 30.15 in 10.0 mi North 18.4 mph 24.2 mph N/A   Overcast
11:35 PM 10.4 °F -8.6 °F 3.2 °F 73% 30.16 in 9.0 mi North 20.7 mph - N/A   Overcast
11:55 PM 10.4 °F -7.7 °F 1.4 °F 67% 30.17 in 10.0 mi North 18.4 mph - N/A   Overcast